Theta_e
320 321 322 322 322 323 324 325 325 325 326 325 326 325 325 325 324 320 313 316 320 329 322 314 314 313 315 311 311 310 301 299 299 300 302 307 304 307 309 307 308 308 307 306 309
320 320 321 321 321 322 323 324 324 325 326 325 326 325 325 324 319 314 320 328 330 329 313 310 308 310 309 309 310 306 301 300 303 304 304 306 305 306 305 305 305 305 307 308 309
321 320 321 321 321 321 322 323 324 325 326 326 326 325 324 322 314 310 325 327 331 322 314 313 312 309 306 308 307 305 301 301 302 305 306 305 304 307 304 303 305 305 305 305 306
321 321 320 320 321 321 322 323 324 325 325 326 326 324 323 318 302 313 327 328 330 317 314 311 309 306 305 303 307 302 303 303 304 305 304 304 306 304 304 303 304 304 304 305 304
321 321 320 320 320 321 321 322 323 324 325 325 325 324 318 311 311 321 325 326 317 314 311 308 306 306 303 303 304 303 304 304 306 305 305 304 303 304 303 303 303 303 303 302 303
321 320 320 320 320 321 321 322 323 324 324 325 324 321 314 306 318 322 316 314 313 312 310 310 307 308 304 303 303 304 303 304 304 304 304 301 303 302 301 303 302 301 301 301 301
321 320 320 320 320 321 321 321 322 321 322 323 322 318 312 311 320 319 314 313 313 311 308 311 310 307 307 303 305 303 300 304 304 304 302 303 299 299 302 302 301 300 301 300 299
320 320 319 320 320 321 320 321 321 321 322 321 322 316 309 311 321 316 316 312 313 313 311 312 312 308 306 306 303 301 301 298 303 301 301 301 298 300 301 300 301 301 300 299 298
318 319 319 319 320 320 320 320 320 321 321 322 317 312 307 313 311 316 315 310 310 311 310 310 310 306 304 301 300 300 296 298 299 302 300 300 300 300 300 300 301 300 299 298 298
317 318 318 319 320 320 319 320 322 321 318 318 315 308 309 305 308 313 313 312 308 308 306 306 305 301 301 300 293 297 297 298 297 300 299 299 299 299 299 300 300 300 299 298 297
318 318 319 319 320 320 319 319 313 311 313 308 309 308 307 305 309 309 311 308 308 306 300 304 299 296 300 301 301 300 298 297 300 300 297 299 299 302 299 299 299 299 298 297 297
319 319 319 320 320 320 319 312 312 312 306 313 312 310 307 307 301 305 310 304 302 299 302 297 294 301 303 301 300 298 296 296 300 298 296 298 298 302 300 299 300 299 297 297 295
319 318 319 319 320 318 315 314 315 313 305 307 311 309 308 305 303 302 306 304 300 299 298 297 299 301 298 297 295 296 295 296 296 296 297 296 295 298 302 299 298 298 298 297 296
320 318 318 319 314 316 312 318 321 314 298 300 304 309 307 306 301 307 307 303 298 297 298 298 302 297 296 295 296 293 299 297 295 293 291 297 289 298 300 294 294 294 295 295 296
319 319 318 319 316 312 314 319 320 315 286 302 303 308 307 304 303 298 305 301 298 297 297 296 294 294 294 295 297 295 298 296 295 293 293 294 289 295 296 291 291 293 294 295 295
318 318 318 316 317 316 317 318 315 293 285 297 300 299 298 302 297 298 298 302 301 298 297 297 299 298 298 297 297 298 295 293 293 293 287 292 291 293 291 292 293 293 294 294 294
317 317 316 319 311 314 317 311 292 285 300 296 295 298 299 296 295 296 294 293 293 289 291 295 296 298 298 294 295 296 293 288 286 284 284 292 292 294 297 295 295 293 293 294 293
316 316 316 318 318 315 313 299 283 294 296 299 297 298 296 298 296 294 293 292 296 297 295 292 290 296 297 298 296 292 294 289 283 285 288 286 285 292 295 296 295 295 294 294 292
315 314 313 317 315 316 305 288 290 295 300 298 296 294 295 295 297 294 294 294 298 297 292 293 294 298 298 300 300 293 290 297 288 283 283 288 291 295 292 291 293 293 293 292 291
312 309 308 319 315 311 300 289 294 301 302 301 294 296 293 294 292 293 294 298 298 300 302 297 292 293 293 295 295 295 297 287 288 282 281 287 289 290 288 289 290 292 291 292 291
310 303 312 318 313 303 293 292 296 303 303 299 297 296 296 296 294 292 296 298 300 299 299 298 294 289 291 289 291 290 289 291 292 290 286 284 287 295 295 293 290 291 292 292 291
307 296 314 316 298 299 294 298 299 299 303 299 299 299 297 297 294 295 294 298 301 299 293 298 294 291 291 295 296 296 292 292 287 285 288 287 289 292 296 296 294 292 292 293 293
301 302 314 311 292 293 297 297 300 298 299 298 297 300 300 296 290 295 298 302 301 298 296 296 290 286 288 290 290 288 291 293 293 291 286 285 288 292 293 294 295 294 294 294 293
301 293 300 303 302 295 294 293 295 300 299 300 299 301 298 295 297 295 296 294 297 298 299 299 291 289 288 292 292 286 289 290 290 286 287 288 291 289 291 292 294 295 295 294 293
300 296 300 291 293 295 295 294 293 293 299 299 296 297 296 292 293 292 296 292 293 295 294 296 287 290 292 294 293 291 289 289 287 290 287 291 291 295 293 293 294 295 295 294 292
293 294 297 298 298 295 294 292 290 291 296 295 294 297 297 294 295 292 294 294 293 292 291 293 287 290 287 292 292 289 291 291 290 290 291 292 293 300 296 296 295 294 294 293 292
295 294 292 295 294 293 293 292 291 294 297 299 298 296 295 297 300 298 295 296 296 294 289 288 287 285 284 289 289 279 285 290 292 292 293 288 294 292 293 293 294 294 294 293 293
Wind_Speed
2 2 3 4 4 5 6 6 7 7 9 11 13 12 12 12 12 5 3 5 3 0 5 1 2 0 1 2 2 2 5 6 4 6 4 6 7 3 1 3 3 4 6 5 6
1 2 3 3 4 5 5 5 6 8 8 10 11 11 11 11 6 6 4 2 1 2 4 4 3 2 2 1 1 4 4 1 4 1 4 6 4 3 5 6 7 7 8 6 6
2 2 3 3 4 5 6 6 7 7 10 11 12 11 10 9 6 3 2 1 2 4 2 1 1 3 3 2 2 1 4 2 3 2 0 3 4 2 5 6 8 4 5 6 6
4 3 4 4 5 5 6 7 8 9 10 12 13 12 12 5 5 3 2 2 2 3 3 3 3 3 4 4 1 6 2 1 2 3 2 4 2 4 4 6 5 5 5 4 6
6 5 4 5 6 7 7 7 8 9 11 13 13 12 7 6 2 5 3 3 4 3 4 3 5 2 7 2 3 6 2 3 3 4 5 1 7 7 5 4 5 6 4 5 5
7 7 5 5 6 7 7 8 9 10 12 13 12 12 5 9 4 4 5 4 3 5 4 4 3 2 3 3 5 3 3 5 5 8 6 6 7 4 5 7 6 4 4 4 5
8 8 7 6 6 7 7 8 9 11 13 11 9 5 6 8 1 5 4 2 2 3 4 1 1 4 2 2 1 2 7 9 12 10 6 6 9 12 10 9 6 5 3 2 3
10 9 8 7 7 6 7 7 7 11 9 6 7 5 8 2 2 5 6 4 4 2 1 2 2 2 4 2 4 5 4 8 8 8 4 9 7 10 8 10 8 3 2 0 2
10 10 9 8 8 7 6 7 6 8 5 6 5 4 6 3 5 7 6 5 6 4 4 4 3 2 5 7 8 9 11 9 5 8 4 11 3 10 6 10 8 6 4 3 2
13 12 11 9 8 7 7 6 4 6 5 4 3 5 7 3 5 6 4 9 4 8 6 5 6 8 8 10 11 10 12 11 11 8 8 10 14 9 9 9 9 8 7 6 4
15 14 12 10 8 5 6 5 5 5 7 10 4 4 4 5 3 6 6 9 6 8 10 10 10 15 18 17 17 9 11 12 7 4 4 13 16 11 13 10 10 9 8 7 5
16 15 12 10 8 7 6 6 4 4 8 16 15 11 3 5 4 9 9 11 10 12 11 5 16 18 13 10 15 13 15 16 13 4 5 13 17 15 14 14 13 11 10 9 9
17 15 13 11 9 5 10 8 4 4 8 11 13 11 10 11 9 15 15 9 9 15 17 17 5 6 10 7 11 16 17 15 15 2 11 13 20 22 16 9 7 8 9 10 11
18 16 16 13 6 8 9 11 7 4 8 15 11 9 9 10 10 7 17 6 7 16 14 15 17 6 11 16 14 17 14 15 13 6 11 5 11 5 14 13 14 14 13 14 14
17 18 19 21 5 13 3 8 9 3 10 4 9 3 6 16 10 5 2 5 14 10 9 5 10 13 14 11 12 7 3 7 11 14 16 17 10 11 8 13 18 18 17 17 15
11 15 19 13 4 7 8 9 5 5 16 6 6 7 9 13 2 5 7 1 4 10 12 14 4 9 9 3 10 10 6 3 3 9 14 17 17 13 12 13 17 19 19 19 18
15 14 14 7 8 9 12 9 7 8 6 11 8 10 15 11 8 9 15 15 14 11 18 15 16 5 5 7 4 13 8 5 6 7 9 3 16 16 5 8 16 24 23 22 18
18 12 9 9 7 15 10 9 8 19 27 10 4 11 14 14 10 11 14 13 23 17 8 15 10 23 18 23 12 19 17 8 7 9 8 1 11 8 5 10 7 17 21 21 20
12 6 4 7 11 13 11 13 16 15 23 17 7 9 14 10 7 13 15 12 13 23 15 12 11 4 11 10 18 11 15 14 5 2 5 8 11 6 8 7 9 18 19 21 20
5 4 8 10 13 11 15 17 15 18 3 22 27 18 17 15 13 16 17 12 11 22 17 3 6 5 5 2 6 7 10 7 7 7 9 9 13 10 12 16 15 20 22 21 18
7 5 4 13 9 8 13 11 20 15 15 12 22 17 22 16 19 14 10 6 18 18 21 6 6 6 6 13 18 9 10 10 6 10 4 5 8 11 15 19 22 19 20 21 21
4 10 9 12 10 3 13 14 16 19 11 7 8 18 18 19 18 20 18 14 19 16 17 12 1 11 15 3 13 18 15 20 7 7 10 6 11 4 4 15 18 19 20 21 21
6 8 6 10 10 13 6 18 17 17 21 12 13 16 14 11 8 20 20 13 16 17 19 14 5 5 4 5 3 10 15 19 20 2 18 9 8 3 6 9 15 17 19 19 20
4 6 5 7 9 13 12 12 19 17 13 19 16 19 13 16 16 12 14 4 8 15 4 6 7 11 17 5 10 11 18 19 17 13 20 23 15 8 11 13 15 15 17 20 21
4 6 7 7 16 21 19 5 18 13 20 16 14 22 18 12 18 23 19 3 3 6 3 11 10 16 25 22 7 7 15 25 28 36 20 34 23 14 17 16 19 17 17 18 20
4 2 4 11 14 19 17 17 16 11 11 15 19 20 21 20 20 12 15 14 15 7 9 4 9 14 21 22 21 19 16 27 33 33 30 32 25 10 17 14 14 18 19 20 21
1 2 2 6 14 11 16 20 19 12 5 21 21 22 22 29 21 8 3 4 8 16 16 11 8 7 18 14 18 4 39 23 29 33 25 31 34 4 8 12 16 16 16 18 18
Wind_Direction
69 39 20 21 13 16 16 14 6 357 349 347 342 338 334 329 304 228 285 16 340 300 295 174 232 317 244 90 358 308 249 234 224 231 180 153 192 153 47 217 78 40 42 27 1
341 349 355 357 357 350 355 357 351 343 344 338 335 330 328 330 281 262 68 4 352 174 223 216 184 212 168 117 228 267 266 300 3 36 196 157 237 161 221 185 155 113 85 43 43
272 297 315 330 335 334 333 337 335 335 336 335 329 324 321 311 277 85 71 70 163 263 269 238 173 263 241 251 171 139 282 90 151 120 313 173 223 213 251 233 41 360 78 52 59
237 272 298 309 315 317 319 324 328 329 334 332 327 323 322 252 310 86 79 125 169 266 191 183 229 249 275 241 179 245 185 242 117 151 204 218 347 242 266 67 69 68 80 62 55
240 247 269 291 302 307 309 314 320 324 327 327 323 323 300 242 279 113 121 130 181 190 218 233 260 276 252 239 226 247 168 192 177 185 226 292 246 269 183 121 110 103 92 72 53
244 246 248 266 284 295 302 307 316 324 324 322 316 315 263 262 102 128 125 143 209 212 193 225 301 278 289 251 250 30 262 243 218 225 230 228 224 209 168 152 136 140 99 69 46
236 245 251 251 265 281 292 304 316 323 318 315 316 297 254 268 71 136 152 138 176 243 218 224 250 225 148 220 177 277 271 240 224 229 234 215 227 227 136 167 160 159 136 86 42
230 239 247 253 261 268 283 294 317 315 312 319 318 273 269 61 156 173 168 124 119 104 2 118 211 151 274 122 203 250 244 255 115 183 173 204 258 145 169 186 189 194 184 241 43
242 239 243 246 254 261 269 288 295 299 304 296 271 267 258 136 196 178 195 166 129 115 84 133 207 225 176 222 239 209 265 214 195 200 158 208 233 157 194 203 207 206 204 203 182
217 234 240 239 241 253 269 267 294 276 228 250 263 257 183 210 141 163 149 163 142 143 136 182 205 221 226 217 235 259 224 249 253 162 216 219 251 166 182 208 211 205 202 202 199
215 218 228 226 227 230 263 234 221 203 216 216 194 253 136 91 157 185 161 158 145 198 208 201 218 218 226 228 251 289 277 264 273 100 260 242 256 222 191 209 215 209 199 188 165
215 211 211 212 206 199 246 246 341 8 286 226 243 243 210 191 155 176 183 183 190 206 200 183 230 238 248 278 238 241 252 255 262 155 247 267 261 254 189 214 220 211 194 177 159
215 204 193 192 185 188 215 232 344 310 259 241 208 216 197 179 210 180 186 202 211 211 199 225 221 238 200 212 216 234 244 255 262 141 237 273 266 248 222 208 211 215 188 171 167
215 200 182 162 170 203 220 234 241 301 268 238 198 218 162 182 229 154 200 183 204 225 212 244 232 185 200 228 215 244 228 253 266 244 264 175 282 267 198 202 205 199 182 174 161
226 208 185 167 179 191 173 166 195 246 266 19 126 62 160 186 115 161 170 185 218 193 175 208 178 200 213 216 200 251 94 224 246 257 270 247 267 258 152 213 205 196 188 176 168
241 217 187 190 253 175 126 129 160 205 230 167 130 167 155 201 123 107 174 20 321 229 234 261 13 209 215 113 188 128 109 94 243 258 252 236 225 251 194 213 191 191 188 175 170
244 224 194 169 203 151 139 141 187 209 198 202 175 179 195 173 171 176 179 189 188 190 222 218 218 178 180 138 147 195 174 242 230 210 256 321 219 256 162 185 184 180 182 176 169
243 229 225 210 156 149 167 173 206 219 217 83 153 179 188 170 204 178 175 205 221 225 293 211 217 198 197 213 189 199 198 200 250 238 262 77 235 242 9 132 178 177 175 171 173
226 228 223 201 167 169 184 204 211 206 203 202 142 200 204 195 215 186 210 219 205 208 206 206 233 186 192 219 212 173 223 235 318 130 269 216 243 215 156 163 175 174 175 177 177
200 197 225 175 170 196 201 200 239 226 273 207 212 198 203 195 194 197 192 217 214 203 211 237 250 181 144 168 263 228 165 173 205 224 238 240 244 239 204 188 176 177 184 180 178
199 216 189 170 164 212 214 210 229 234 232 235 223 229 230 198 203 197 206 194 201 194 196 203 239 127 149 203 186 181 211 223 220 221 254 274 240 192 201 187 184 184 183 180 182
207 213 160 156 206 230 222 213 214 216 218 238 243 244 231 226 205 218 218 218 196 156 181 196 264 243 224 181 247 226 213 207 207 195 237 279 257 159 158 178 178 181 185 186 184
217 215 165 167 220 218 230 232 228 215 212 203 216 227 231 217 230 233 229 228 177 178 175 164 180 231 268 202 168 221 216 224 228 52 228 198 247 135 132 169 180 181 181 184 181
211 208 178 208 234 219 213 233 219 223 224 225 232 227 222 227 220 251 223 159 190 203 163 150 151 208 231 227 150 199 210 207 216 226 231 232 234 177 195 185 182 185 182 181 184
248 213 198 200 217 232 239 303 222 217 216 203 230 232 219 220 228 234 242 110 157 216 164 175 225 214 246 260 252 208 205 205 209 228 213 245 232 208 195 188 187 182 178 182 186
283 240 328 237 202 215 205 217 240 276 225 209 222 219 226 224 215 228 214 216 217 172 180 178 233 224 250 243 245 247 242 223 217 230 234 248 251 228 185 191 174 179 176 184 189
171 217 264 202 224 201 210 214 215 221 265 239 221 221 221 229 234 265 322 215 225 201 187 180 206 202 247 232 246 303 230 226 231 225 227 234 241 124 149 193 193 181 175 190 194